Location: LDNL
(36.4545°S, 141.6685°E)
Time: 19:36:50
(UTC+10:00)

A-11 Canister half - Pass Details

Date: 29 January 2022
Orbit: 1527 x 1682 km, 47.3° (Epoch: 20 May)

Event Time Altitude Azimuth Distance (km) Brightness Sun altitude
Rises 22:32:56 0° 321° (NW) 4,915 11.6 -19.0°
Reaches altitude 10° 22:36:07 10° 324° (NW) 3,937 11.1 -19.5°
Maximum altitude 22:46:05 64° 42° (NE) 1,837 9.1 -21.0°
Drops below altitude 10° 22:56:00 10° 120° (ESE) 3,922 11.0 -22.4°
Sets 22:59:10 0° 122° (ESE) 4,896 11.5 -22.8°
